This is the latest recevied weather packets stored in our database for station/object NO3U. If no packets are shown the sender has not sent any weather packets the latest 10 day(s).
| Time | Temp. | Humidity | Pressure | Rain* | Wind** | Luminosity | Snow |
|---|---|---|---|---|---|---|---|
| 1777814356 | 8.33° C | 67% | 1018.5 hPa | 0 mm | - | 337 W/m² | - |
| 1777814053 | 8.33° C | 68% | 1018.4 hPa | 0 mm | - | 323 W/m² | - |
| 1777813750 | 8.33° C | 67% | 1018.4 hPa | 0 mm | - | 222 W/m² | - |
| 1777813448 | 7.78° C | 70% | 1018.3 hPa | 0 mm | - | 295 W/m² | - |
| 1777813145 | 7.22° C | 71% | 1018.3 hPa | 0 mm | - | 284 W/m² | - |
| 1777812843 | 6.67° C | 74% | 1018.2 hPa | 0 mm | - | 51 W/m² | - |
| 1777812539 | 6.67° C | 77% | 1018.1 hPa | 0 mm | - | 255 W/m² | - |
| 1777812237 | 5.56° C | 83% | 1018.1 hPa | 0 mm | - | 243 W/m² | - |
| 1777811935 | 5.56° C | 85% | 1018.1 hPa | 0 mm | - | 228 W/m² | - |
| 1777811634 | 5° C | 92% | 1018.1 hPa | 0 mm | - | 214 W/m² | - |
| 1777811333 | 4.44° C | 91% | 1018.2 hPa | 0 mm | - | 201 W/m² | - |
| 1777811031 | 3.89° C | 99% | 1018.3 hPa | 0 mm | - | 186 W/m² | - |
| 1777810728 | 2.78° C | 99% | 1018.1 hPa | 0 mm | - | 174 W/m² | - |
| 1777810424 | 2.22° C | 99% | 1018.1 hPa | 0 mm | - | 160 W/m² | - |
| 1777810120 | 1.67° C | 99% | 1018.2 hPa | 0 mm | - | 141 W/m² | - |
| 1777809817 | 1.67° C | 99% | 1018.1 hPa | 0 mm | - | 134 W/m² | - |
| 1777809515 | 0.56° C | 99% | 1018.1 hPa | 0 mm | - | 118 W/m² | - |
| 1777809213 | 0.56° C | 99% | 1018.2 hPa | 0 mm | - | 100 W/m² | - |
| 1777808911 | 0° C | 99% | 1018.1 hPa | 0 mm | - | 60 W/m² | - |
| 1777808607 | 0° C | 99% | 1018.1 hPa | 0 mm | - | 50 W/m² | - |
| 1777808304 | -0.56° C | 99% | 1018 hPa | 0 mm | - | 66 W/m² | - |
| 1777808003 | -0.56° C | 99% | 1018 hPa | 0 mm | - | 52 W/m² | - |
| 1777807699 | -1.11° C | 99% | 1017.9 hPa | 0 mm | - | 51 W/m² | - |
| 1777807398 | -1.11° C | 99% | 1018 hPa | 0 mm | - | 46 W/m² | - |
| 1777807098 | -1.11° C | 99% | 1018.1 hPa | 0 mm | - | 37 W/m² | - |
* Rain latest hour (hover to see other rain measurements)
** Current wind speed in m/s (hover to see current wind gust speed)